This is the latest recevied weather packets stored in our database for station/object HK3BJ-11. If no packets are shown the sender has not sent any weather packets the latest 10 day(s).
| Time | Temp. | Humidity | Pressure | Rain* | Wind** | Luminosity | Snow |
|---|---|---|---|---|---|---|---|
| 1787633643 | 11.67° C | 83% | 1021 hPa | 0 mm | - | - | - |
| 1787632703 | 10.56° C | 83% | 1021 hPa | 0 mm | - | - | - |
| 1787631761 | 12.22° C | 78% | 1022 hPa | 0 mm | - | - | - |
| 1787630817 | 12.22° C | 80% | 1022 hPa | 0 mm | - | - | - |
| 1787629875 | 12.22° C | 84% | 1022 hPa | 0 mm | - | - | - |
| 1787628935 | 12.22° C | 83% | 1022 hPa | 0 mm | - | - | - |
| 1787627990 | 12.22° C | 78% | 1022 hPa | 0 mm | - | - | - |
| 1787627038 | 12.22° C | 80% | 1022 hPa | 0 mm | - | - | - |
| 1787626078 | 12.22° C | 84% | 1022 hPa | 0 mm | - | - | - |
| 1787625134 | 12.22° C | 84% | 1021 hPa | 0 mm | - | - | - |
| 1787623240 | 12.78° C | 79% | 1021 hPa | 0 mm | - | - | - |
| 1787622284 | 13.89° C | 70% | 1020 hPa | 0 mm | - | - | - |
| 1787621322 | 12.78° C | 70% | 1019 hPa | 0 mm | - | - | - |
| 1787620355 | 13.33° C | 71% | 1019 hPa | 0 mm | - | - | - |
| 1787618446 | 13.89° C | 75% | 1019 hPa | 0 mm | - | - | - |
| 1787617485 | 14.44° C | 68% | 1018 hPa | 0 mm | - | - | - |
| 1787616533 | 14.44° C | 68% | 1018 hPa | 0 mm | - | - | - |
| 1787615585 | 14.44° C | 71% | 1018 hPa | 0 mm | - | - | - |
| 1787614631 | 16.67° C | 64% | 1017 hPa | 0 mm | - | - | - |
| 1787613684 | 15.56° C | 64% | 1015 hPa | 0 mm | - | - | - |
| 1787612738 | 16.67° C | 66% | 1015 hPa | 0 mm | - | - | - |
| 1787611795 | 15.56° C | 66% | 1015 hPa | 0 mm | - | - | - |
| 1787610855 | 16.67° C | 58% | 1015 hPa | 0 mm | - | - | - |
| 1787609907 | 15.56° C | 58% | 1013 hPa | 0 mm | - | - | - |
| 1787608946 | 18.89° C | 58% | 1013 hPa | 0 mm | - | - | - |
* Rain latest hour (hover to see other rain measurements)
** Current wind speed in m/s (hover to see current wind gust speed)